EDT,Max TemperatureF,Mean TemperatureF,Min TemperatureF,Max Dew PointF,MeanDew PointF,Min DewpointF,Max Humidity, Mean Humidity, Min Humidity, Max Sea Level PressureIn, Mean Sea Level PressureIn, Min Sea Level PressureIn, Max VisibilityMiles, Mean VisibilityMiles, Min VisibilityMiles, Max Wind SpeedMPH, Mean Wind SpeedMPH, Max Gust SpeedMPH,PrecipitationIn, CloudCover, Events, WindDirDegrees
2013-7-1,84,76,69,75,73,68,100,89,70,30.02,29.96,29.91,10,9,4,29,10,38,0.02,3,Rain-Thunderstorm,179
2013-7-2,79,75,72,75,73,71,100,91,83,30.14,30.10,30.06,10,10,4,18,9,,0.08,1,Rain-Thunderstorm,123
2013-7-3,83,77,71,76,73,71,100,92,78,30.17,30.12,30.08,10,8,2,13,7,,0.00,0,,137
2013-7-4,83,78,73,75,73,71,95,89,75,30.19,30.15,30.11,10,8,2,13,7,,0.00,0,,123
2013-7-5,84,78,73,75,74,72,94,87,74,30.18,30.15,30.11,10,9,5,12,8,,0.00,0,Thunderstorm,122
2013-7-6,84,80,75,75,74,72,94,84,74,30.17,30.14,30.11,10,10,9,14,8,,0.00,0,,129
2013-7-7,85,80,76,76,75,73,94,87,74,30.17,30.13,30.09,10,10,7,10,6,,0.00,0,,96
2013-7-8,86,82,78,76,75,74,92,82,71,30.21,30.16,30.12,10,10,10,12,7,,0.00,0,,88
2013-7-9,85,81,77,76,74,73,89,80,70,30.19,30.15,30.10,10,10,10,12,8,,0.00,0,,68
2013-7-10,85,80,77,74,73,71,87,77,68,30.12,30.08,30.03,10,10,10,17,8,,0.00,0,,132
2013-7-11,89,81,74,77,73,68,89,79,55,30.06,30.00,29.96,10,9,1,25,11,33,0.30,2,Rain-Thunderstorm,185
2013-7-12,86,80,75,77,74,72,94,85,69,29.99,29.94,29.89,10,9,0,18,6,23,0.44,1,Rain-Thunderstorm,148
2013-7-13,82,78,74,76,74,71,94,88,79,30.04,29.99,29.95,10,10,10,20,7,25,0.04,0,Rain-Thunderstorm,167
2013-7-14,81,77,73,75,72,69,94,88,80,30.14,30.08,30.01,10,10,9,20,9,,0.01,1,Rain-Thunderstorm,140
2013-7-15,83,78,73,76,73,71,94,88,79,30.16,30.11,30.06,10,10,10,16,7,,0.00,0,,55
2013-7-16,85,80,76,76,74,71,91,84,66,30.19,30.16,30.11,10,9,1,18,9,32,0.27,1,Rain-Thunderstorm,97
2013-7-17,84,80,76,77,74,71,93,85,78,30.17,30.15,30.12,10,10,10,16,9,,0.00,1,,89
2013-7-18,83,79,75,75,73,71,94,86,74,30.16,30.12,30.09,10,10,6,12,8,,0.05,1,Rain,132
2013-7-19,84,78,74,78,74,71,94,88,80,30.17,30.13,30.08,10,10,9,20,7,26,0.10,0,Rain-Thunderstorm,158
2013-7-20,85,80,75,79,75,71,93,85,73,30.14,30.10,30.04,10,10,9,18,6,25,0.03,1,Rain-Thunderstorm,151
2013-7-21,86,80,74,77,73,70,93,82,72,30.17,30.11,30.06,10,10,10,26,8,34,0.11,1,Rain-Thunderstorm,203
2013-7-22,91,83,75,77,74,72,91,82,59,30.16,30.11,30.08,10,9,1,15,9,20,0.42,2,Rain-Thunderstorm,201
2013-7-23,90,84,76,77,73,71,91,76,52,30.12,30.05,29.97,10,10,8,21,10,23,0.00,0,Rain,274
2013-7-24,89,80,73,76,74,72,94,84,63,30.01,29.96,29.91,10,8,0,33,12,46,0.69,2,Fog-Rain-Thunderstorm,249
2013-7-25,85,78,73,77,75,72,94,87,70,30.00,29.96,29.91,10,9,1,25,12,29,0.20,1,Rain,249
2013-7-26,84,80,76,77,76,74,96,91,77,30.03,29.99,29.95,10,10,5,12,6,,0.02,4,Rain,306
2013-7-27,86,82,77,77,76,73,94,83,74,30.01,29.98,29.94,10,10,10,12,6,,0.00,0,,209
2013-7-28,86,82,78,76,74,70,91,77,60,30.09,30.02,29.96,10,10,10,15,7,,0.00,1,,160
2013-7-29,87,82,77,77,75,72,90,78,70,30.19,30.13,30.06,10,10,10,13,6,,0.00,1,Thunderstorm,135
2013-7-30,85,84,79,77,76,74,92,81,66,30.19,30.16,30.14,10,9,7,10,4,,0.00,1,,116
2013-7-31,87,82,78,78,76,75,91,81,68,30.16,30.11,30.06,10,10,10,14,6,,0.00,0,,119